User: anonymous   Login
Location: Ar Ranvel
(48.3000°N, 4.8833°W)
Time: 10:27:25
(UTC+00:00)
Language:

Cosmos 1850 Rocket - Orbit

View from above orbital plane
View from above orbital plane
View from above satellite
View from above satellite

Ground track
Ground track

The orbit data is extracted from the following two-line orbital elements,

1 18096U 87049B   21267.92636733  .00000129  00000-0  52601-4 0  9999
2 18096  74.0408 239.2721 0021195  24.0447 336.1691 14.36599751795789
Epoch (UTC): 24 September 2021 22:13:58
Eccentricity: 0.0021195
inclination: 74.0408°
perigee height: 754 km
apogee height: 785 km
right ascension of ascending node: 239.2721°
argument of perigee: 24.0447°
revolutions per day: 14.36599751
mean anomaly at epoch: 336.1691°
orbit number at epoch: 79578

The dashed part of the orbit path shows where the satellite is in the earth's shadow,  

DLR